Preview of NWS' New Version of Forecast
This preview is not operational and should not be used for support decisions.

Regional Weather Roundup (RWR)

Issued by National Weather Service (NWS)

                            
000
ASUS43 KLSX 180007
RWRMO 

WEATHER SUMMARY FOR MISSOURI
NATIONAL WEATHER SERVICE SPRINGFIELD MO
700 PM CDT WED JUL 17 2019

NOTE: "FAIR" INDICATES FEW OR NO CLOUDS BELOW 12,000 FEET WITH NO
       SIGNIFICANT WEATHER AND/OR OBSTRUCTIONS TO VISIBILITY.
       CURRENT SKY AND/OR WEATHER CONDITIONS ARE NOT AVAILABLE FOR
       CHILLICOTHE AND FARMINGTON.

MOZ001>031-035>038-043-044-053-054-180100-
...NORTHERN AND WESTERN MISSOURI...
  
CITY           SKY/WX    TMP DP  RH WIND       PRES   REMARKS
KANSAS CTY INT MOSUNNY   92  76  59 S13       29.82S HX 104           
6HR MIN TEMP:  85; 6HR MAX TEMP:  96; 6HR PCP: TRACE;                

KANSAS C DTWN  SUNNY     95  72  47 S18G28    29.80F HX 103           
6HR MIN TEMP:  88; 6HR MAX TEMP:  96; 6HR PCP:  0.02;                

LEE'S SUMMIT   SUNNY     93  73  52 S18G25    29.84F HX 102           
6HR MIN TEMP:  87; 6HR MAX TEMP:  95; 6HR PCP: TRACE;                

ST JOSEPH      SUNNY     93  76  57 S12       29.78F HX 105           
6HR MIN TEMP:  85; 6HR MAX TEMP:  95; 6HR PCP: TRACE;                

CHILLICOTHE      N/A     90  77  65 SE8       29.84F HX 103           
6HR MIN TEMP:  90; 6HR MAX TEMP:  95;                                

KIRKSVILLE     SUNNY     78  67  68 SE17      29.91S                  
6HR MIN TEMP:  72; 6HR MAX TEMP:  94; 6HR PCP: TRACE;                

     
$$
MOZ066>068-077>081-088>096-101>105-180100-
...SOUTHWEST MISSOURI...
  
CITY           SKY/WX    TMP DP  RH WIND       PRES   REMARKS
SPRINGFIELD    SUNNY     91  74  57 SW12      29.93F HX 100           
6HR MIN TEMP:  91; 6HR MAX TEMP:  94;                                

JOPLIN         SUNNY     90  74  59 SW16      29.90F HX  99           
6HR MIN TEMP:  90; 6HR MAX TEMP:  93;                                

BRANSON        MOSUNNY   90  72  55 CALM      29.97F HX  96           
               
$$
MOZ032>034-039>042-045>050-055>058-069>072-180100-
...CENTRAL MISSOURI...  
  
CITY           SKY/WX    TMP DP  RH WIND       PRES   REMARKS
COLUMBIA       PTSUNNY   74  69  85 SE14G25   29.98R                  
6HR MIN TEMP:  74; 6HR MAX TEMP:  94; 6HR PCP: TRACE;                

ROLLA          PTSUNNY   75  71  87 S8        29.96R                  
6HR MIN TEMP:  75; 6HR MAX TEMP:  94; 6HR PCP:  0.04;                

SEDALIA        SUNNY     84  75  74 S7        29.89F HX  92           
6HR MIN TEMP:  83; 6HR MAX TEMP:  90;                                

WHITEMAN AFB   MOSUNNY   91  78  66 S14       29.82F HX 106           
WARRENSBURG    SUNNY     90  73  58 S8G17     29.85S HX  98           
OSAGE BEACH    SUNNY     92  76  59 SW6       29.92R HX 104           
               
$$
MOZ051-052-059>065-180100-
...EAST CENTRAL MISSOURI...
  
CITY           SKY/WX    TMP DP  RH WIND       PRES   REMARKS
ST LOUIS INTL  TSTM      73  69  87 SW13      30.05R                  
6HR MIN TEMP:  72; 6HR MAX TEMP:  95; 6HR PCP:  0.13;                

SPIRIT OF STL  TSTM      73  70  90 NE8       30.03F                  
6HR MIN TEMP:  71; 6HR MAX TEMP:  95; 6HR PCP:  0.87;                

ST CHARLES       N/A    N/A N/A N/A MISG      30.04R                  
                   
$$
MOZ072>076-082>087-097>100-106>115-180100-
...SOUTH CENTRAL AND SOUTHEAST MISSOURI...
  
CITY           SKY/WX    TMP DP  RH WIND       PRES   REMARKS
CAPE GIRARDEAU TSTM      75  71  87 W24G32    30.01R FOG              
6HR MIN TEMP:  77; 6HR MAX TEMP:  91; 6HR PCP: TRACE;                

FARMINGTON     LGT RAIN  73  71  93 S5        30.03R                  
6HR MIN TEMP:  72; 6HR MAX TEMP:  92; 6HR PCP:  0.12;                

POPLAR BLUFF   PTSUNNY   81  75  82 N15G25    29.96R                  
6HR MIN TEMP:  81; 6HR MAX TEMP:  91;                                

WEST PLAINS    SUNNY     88  77  69 S3        29.99R HX 100           
6HR MIN TEMP:  88; 6HR MAX TEMP:  91;                                

                                       
$$